Regional Weather Roundup
Issued by NWS Midland/Odessa, TX

Home | Current Version | Previous Version | Text Only | Print | Product List | Glossary On
Versions: 1 2 3 4 5 6 7 8 9 10 11 12 13 14 15 16 17 18 19 20 21 22 23 24 25 26 27 28 29 30 31 32 33 34 35 36 37 38 39 40 41 42 43 44 45 46 47 48 49 50
000
ASUS44 KMAF 300310
RWRMAF
MIDLAND AREA WEATHER ROUNDUP
NATIONAL WEATHER SERVICE MIDLAND TX
1000 PM CDT MON AUG 29 2016

...IN SOUTHWEST TEXAS AND SOUTHEAST NEW MEXICO...

CITY           SKY/WX    TMP DP  RH WIND       PRES   REMARKS
ALPINE         PTCLDY    65  63  91 N5        30.26R
ANDREWS        MOCLDY    69  69 100 N7        30.18R
ARTESIA        CLOUDY    72  64  78 E5        30.20R
BIG SPRING     MOCLDY    74  67  77 NW5       30.16R
CARLSBAD       CLOUDY    72  63  73 NE5       30.17R
DRYDEN           N/A     73  68  84 N8        30.05R
FORT STOCKTON  CLOUDY    69  67  93 S3        30.13R
GUAD PASS      CLOUDY    65  63  93 E32       30.24R
HOBBS          MOCLDY    68  68 100 NE10      30.22R
MARFA          CLOUDY   N/A N/A N/A NE6       30.23R
MIDLAND AIRPK  CLOUDY    71  68  90 N8        30.14R
MIDLAND INTL   CLOUDY    71  68  90 N7        30.13R
ODESSA         CLOUDY    71  67  87 NE9       30.15R
PECOS          MOCLDY    71  68  90 NE5       30.13R
PRESIDIO       LGT RAIN  75  66  75 N8        30.09R
SEMINOLE       MOCLDY    68  66  94 NE8       30.20R
SNYDER           N/A     78  63  59 E9        30.14R
WINK           MOCLDY    73  63  70 E7        30.13R
$$
...OTHER STATIONS IN TEXAS...

CITY           SKY/WX    TMP DP  RH WIND       PRES   REMARKS
ABILENE        CLOUDY    76  69  79 E6        30.11R
AMARILLO       LGT RAIN  66  64  93 E8        30.26R
AUSTIN         CLOUDY    75  73  93 NE7       30.00R
BROWNSVILLE    CLEAR     81  75  82 E3        29.87R
CORPUS CHRISTI PTCLDY    81  77  88 NE10      29.89R
DALLAS FTW     PTCLDY    80  73  79 CALM      30.04R
DEL RIO        CLOUDY    76  74  93 CALM      29.98R
EL PASO        MOCLDY    78  57  48 E12       30.12R
HOUSTON INT    CLOUDY    77  72  84 NE8       29.97R
LUBBOCK        CLOUDY    67  65  93 NE12      30.20R
SAN ANGELO     CLOUDY    78  67  68 E7        30.07R
SAN ANTONIO    PTCLDY    76  72  87 NE6       29.99R
WACO           CLOUDY    76  74  93 N7        30.04R
WICHITA FALLS  NOT AVBL
$$
...OTHER LOCATIONS IN NEW MEXICO...

CITY           SKY/WX    TMP DP  RH WIND       PRES   REMARKS
ALAMAGORDO     PTCLDY    73  50  43 CALM      30.15R
ALBUQUERQUE    PTCLDY    68  46  45 E23G32    30.26R
CANNON AFB     CLOUDY    65  65 100 NE5       30.26R
CLOVIS         CLOUDY    64  61  88 NE3       30.26R
HOLLOMAN AFB   PTCLDY    76  53  45 E5        30.13R
ROSWELL        CLOUDY    70  61  73 NE6       30.22R
RUIDOSO          N/A     59  55  88 E10       30.40R
SANTA FE       CLOUDY    61  49  64 S12       30.35R
TRUTH OR CONSE PTCLDY    72  55  55 N3        30.18R
TUCUMCARI      PTCLDY    65  59  81 CALM      30.25R
$$




USA.gov is the U.S. government's official web portal to all federal, state and local government web resources and services.